Home   Weather   Osterode am Harz   Past weeks

Flag for Germany Past Weather in Osterode am Harz, Lower Saxony, Germany — Yesterday and Last 2 Weeks

54 °F

Low clouds.

Feels Like: 50 °F
Forecast: 44 / 51 °F
Wind: 13 mph from West

Location: Braunschweig Wolfsburg

Current Time: Oct 28, 2016 at 6:01:12 PM

Latest Report: Oct 28, 2016 at 5:20 PM

Visibility: 4 mi

Pressure: 30.39 "Hg

Humidity: 100%

Dew Point: 54 °F

Location of Osterode am HarzLocation

Past Weather in Osterode am Harz — Graph


Osterode am Harz Temperature Yesterday

Maximum temperature yesterday: 55 °F (at 2:20 PM)
Minimum temperature yesterday: 48 °F (at 6:50 AM)
Average temperature yesterday: 52 °F

High & Low Weather Summary for the Past Weeks

High64 °F (Oct 16, 1:50 PM)100% (Oct 17, 6:50 AM)30.45 "Hg (Oct 17, 6:50 AM)
Low36 °F (Oct 26, 4:20 AM)56% (Oct 16, 1:50 PM)29.80 "Hg (Oct 19, 7:50 PM)
Average48 °F89%30.11 "Hg
* Reported Oct 13 4:20 PM — Oct 28 4:50 PM, Osterode am Harz, Weather by CustomWeather, © 2016

Note: Actual official high and low records may vary slightly from our data, if they occured in-between our weather recording intervals... More about our weather records


Osterode am Harz Weather History for the Previous 24 Hours

Scroll right to see more
Time TempWeatherWind HumidityBarometerVisibility
4:50 PM
Fri, Oct 28
54 °FDrizzle. Fog.13 mph100%30.39 "Hg2 mi
4:20 PM54 °FDrizzle. Fog.12 mph100%30.39 "Hg1 mi
3:50 PM54 °FDrizzle. Fog.12 mph94%30.39 "Hg1 mi
3:20 PM54 °FDrizzle. Fog.14 mph94%30.39 "Hg3 mi
2:50 PM55 °FLow clouds.15 mph88%30.36 "HgN/A
2:20 PM55 °FLow clouds.14 mph88%30.39 "Hg5 mi
1:50 PM55 °FOvercast.13 mph82%30.39 "HgN/A
1:20 PM55 °FOvercast.15 mph82%30.39 "HgN/A
12:50 PM55 °FOvercast.15 mph82%30.36 "HgN/A
12:20 PM55 °FOvercast.16 mph82%30.36 "HgN/A
11:50 AM55 °FOvercast.14 mph82%30.36 "HgN/A
11:20 AM55 °FOvercast.17 mph77%30.36 "HgN/A
10:50 AM55 °FPartly sunny.14 mph77%30.36 "HgN/A
10:20 AM55 °FMostly cloudy.16 mph77%30.36 "HgN/A
9:50 AM54 °FMostly cloudy.16 mph82%30.36 "HgN/A
9:20 AM54 °FOvercast.16 mph82%30.36 "HgN/A
8:50 AM54 °FBroken clouds.15 mph82%30.36 "HgN/A
8:20 AM54 °FMostly cloudy.13 mph82%30.36 "HgN/A
7:50 AM54 °FMostly cloudy.15 mph82%30.33 "HgN/A
7:20 AM54 °FOvercast.14 mph82%30.36 "HgN/A
6:50 AM54 °FOvercast.13 mph82%30.36 "HgN/A
6:20 AM52 °FOvercast.12 mph82%30.36 "HgN/A
9:50 PM
Thu, Oct 27
52 °FMostly cloudy.7 mph88%30.45 "Hg4 mi
9:20 PM50 °FPassing clouds.3 mph94%30.45 "Hg4 mi
8:50 PM50 °FPassing clouds.2 mph94%30.45 "Hg4 mi
8:20 PM50 °FClear.5 mph94%30.42 "Hg4 mi
7:50 PM52 °FClear.5 mph88%30.42 "Hg4 mi
7:20 PM54 °FMostly cloudy.7 mph88%30.45 "Hg4 mi
6:50 PM54 °FMostly cloudy.7 mph88%30.45 "Hg4 mi
6:20 PM54 °FMostly cloudy.8 mph88%30.45 "Hg4 mi
Weather by CustomWeather, © 2016

See weather overviewHow to use our weather pages